RH
90 94 93 89 92 77 59 68 65 66 78 90 91 95 98 97 91 81 77 86 94 93 92 90 75 65 61 62 54 47 41 39 41 44 39 23 17 15 14 14 18 17 17 13
51 51 54 67 74 75 75 73 60 74 69 100 92 89 93 100 97 100 97 87 86 84 88 93 92 85 67 53 46 59 46 41 35 22 17 15 13 15 20 22 19 20 18 14
54 56 50 34 51 60 69 68 80 59 90 74 85 96 100 100 90 85 88 100 89 94 95 81 45 38 34 49 60 24 21 19 17 15 16 19 29 30 26 24 24 24 23 23
61 65 44 58 59 55 49 64 67 72 85 88 88 86 92 90 100 81 82 84 59 50 40 37 31 28 25 24 21 20 21 22 23 31 37 40 36 32 31 32 31 29 29 30
71 65 56 64 62 60 56 57 55 56 59 61 60 60 62 65 83 98 97 95 93 88 49 34 29 26 24 24 28 36 40 41 42 43 43 42 42 40 38 35 34 38 40 40
79 77 68 64 66 61 63 64 59 63 61 53 61 58 63 68 71 72 54 46 42 41 44 36 26 30 37 44 52 52 48 47 47 51 48 44 46 49 42 43 47 48 52 52
83 74 74 68 69 69 65 58 61 64 59 52 50 53 53 65 66 50 45 39 35 30 27 32 40 55 62 60 60 59 52 47 46 50 49 48 49 54 52 56 57 61 68 55
73 64 65 71 61 61 62 58 68 71 65 56 52 49 50 50 48 49 43 45 45 57 70 69 67 62 59 56 50 42 36 32 32 32 35 46 57 59 62 69 70 76 68 49
73 61 60 55 46 54 52 55 62 73 80 66 56 53 63 58 45 49 61 62 73 78 84 78 69 64 62 54 47 42 38 36 37 46 58 62 63 69 76 77 81 62 49 58
63 73 66 57 54 56 52 58 53 81 96 98 88 60 51 50 48 46 48 81 99 97 88 78 80 76 66 59 53 50 48 44 44 47 56 71 79 77 74 68 65 70 77 78
47 80 84 78 73 67 62 57 58 69 83 92 90 89 66 50 45 47 72 100 100 100 90 86 81 79 74 67 61 57 59 60 59 60 66 69 72 66 62 67 75 75 80 83
45 46 36 44 67 77 75 66 62 61 67 80 82 82 83 68 60 53 47 64 95 100 98 92 88 86 82 77 72 70 68 72 72 71 69 69 74 72 61 59 62 78 87 90
49 44 36 36 31 34 46 74 79 74 68 61 58 57 60 67 60 53 54 49 46 71 98 100 98 94 91 89 83 78 73 83 79 73 75 69 76 75 68 70 81 85 83 88
49 52 43 37 32 29 33 41 49 50 50 52 56 60 60 57 54 52 51 54 49 51 91 100 100 100 100 99 93 82 72 65 75 71 76 81 82 81 76 81 87 90 96 92
55 50 52 43 40 35 32 34 31 25 22 21 20 22 34 52 59 58 56 55 51 44 58 97 100 100 100 98 88 87 88 63 55 72 87 84 87 89 90 91 92 94 98 100
82 73 56 52 42 34 28 25 21 21 20 19 17 16 16 18 31 51 53 49 42 40 34 74 100 97 98 100 97 89 63 52 52 64 91 99 100 100 100 100 100 100 100 100
94 86 82 61 48 37 33 30 28 24 23 21 20 20 20 17 18 29 50 54 48 42 48 70 100 96 97 100 85 68 72 62 70 98 100 98 93 96 94 97 98 97 99 100
92 93 92 86 72 47 39 39 36 34 32 33 33 33 29 24 23 26 39 60 63 55 54 72 88 98 100 100 95 81 84 77 82 96 98 93 81 77 80 87 96 100 100 100
100 96 83 78 78 69 54 46 44 42 42 44 39 33 28 22 32 44 35 58 66 64 58 46 69 100 100 100 100 98 100 99 96 93 89 89 94 99 100 100 100 100 100 100
95 83 74 69 68 69 67 62 58 54 54 52 59 70 64 64 69 70 53 53 58 58 55 51 54 55 63 86 100 100 100 100 100 100 100 100 100 100 100 100 100 100 100 100
76 75 73 69 63 60 73 89 89 85 86 85 82 87 93 95 89 82 75 64 61 58 54 52 52 52 55 60 61 80 100 100 100 100 100 100 100 100 100 100 100 100 100 100
100 97 90 93 99 97 88 84 80 86 96 100 100 100 100 100 100 100 100 98 87 78 69 61 59 61 63 65 66 66 69 75 90 99 100 100 100 100 100 100 100 100 100 100
100 100 100 100 100 98 98 99 100 100 100 100 100 100 100 100 100 100 100 100 100 99 93 86 81 79 78 78 81 85 90 94 94 96 100 100 100 100 100 100 100 100 100 100
70 73 78 81 90 100 100 100 99 95 72 45 30 19 20 44 88 99 100 100 100 100 100 100 100 99 99 100 100 99 100 100 100 100 100 100 100 100 100 100 100 100 100 100
60 56 52 44 41 69 81 62 73 54 40 37 34 20 16 11 19 38 58 61 58 54 53 72 88 96 97 99 100 100 100 100 100 100 99 96 86 68 44 30 21 19 19 19
62 62 61 45 24 17 14 23 40 41 39 40 36 27 18 16 12 14 19 19 17 13 12 12 12 13 14 17 20 24 24 22 19 18 18 20 22 26 30 34 38 40 40 38
67 63 63 62 46 30 26 19 17 18 25 27 26 24 19 16 16 15 15 14 15 18 23 26 28 28 28 29 31 34 36 37 39 41 45 48 50 52 53 58 66 70 72 74
Wind_Speed
22 21 21 21 24 30 34 30 32 27 26 25 27 24 22 23 28 30 31 33 33 34 35 40 40 42 44 43 44 46 45 44 41 41 40 39 37 37 36 35 35 35 35 33
24 25 25 26 27 28 27 28 31 30 29 24 27 26 18 23 26 29 32 32 31 31 32 32 31 33 35 35 34 35 36 37 38 38 35 35 35 33 32 32 32 33 32 32
24 26 27 30 24 29 28 28 25 30 23 29 25 22 22 21 24 25 22 26 26 30 31 29 30 30 30 30 30 32 32 32 33 33 32 32 30 30 30 30 30 30 29 30
25 24 28 22 21 25 27 28 30 27 23 26 26 23 20 24 25 25 23 24 23 24 24 26 26 26 26 28 29 28 28 29 29 28 28 28 28 28 27 28 29 29 29 30
28 26 26 19 20 23 25 22 27 28 28 29 25 23 20 21 25 27 26 24 23 28 22 23 25 25 25 25 25 25 25 26 26 27 28 27 28 28 29 29 30 28 27 28
26 27 26 20 21 22 22 18 23 21 22 26 21 18 18 26 26 24 21 22 23 24 25 26 25 24 24 24 23 23 23 24 25 27 28 29 29 28 28 27 27 26 26 26
23 23 18 18 21 21 21 20 20 18 18 17 17 23 27 22 21 22 22 23 24 24 24 23 22 22 22 22 24 25 24 25 26 27 28 28 28 28 28 28 27 27 26 25
21 19 14 21 18 20 20 18 19 19 15 17 20 18 17 19 22 23 21 20 20 20 20 20 20 20 21 22 23 23 22 23 24 26 26 27 28 28 28 28 27 25 24 24
22 19 19 20 20 19 19 19 19 17 19 14 16 19 20 19 18 19 22 23 21 20 21 20 20 20 20 20 20 19 20 21 22 21 21 22 23 23 23 22 22 23 23 24
21 21 20 19 18 20 20 20 20 21 21 21 20 14 16 18 19 19 21 23 22 21 21 21 21 20 20 20 19 19 20 21 20 19 19 19 20 21 22 22 23 23 23 25
22 23 25 25 24 22 20 20 20 20 20 19 18 18 16 16 16 19 22 22 21 20 20 20 21 22 20 19 19 20 20 20 21 20 19 19 21 21 22 22 22 23 25 26
26 27 23 25 25 25 25 25 23 22 21 21 20 20 19 19 19 19 19 21 23 22 21 21 22 23 23 21 20 19 22 22 23 23 22 22 23 24 24 24 25 25 27 30
30 29 26 23 23 24 25 24 24 24 25 26 27 27 26 26 26 25 24 24 23 24 24 23 23 24 25 23 23 22 23 25 25 25 25 24 24 26 25 26 27 30 31 32
28 28 26 25 23 22 22 23 24 24 24 24 25 27 29 30 31 31 31 29 27 26 27 25 25 27 26 27 27 27 26 28 29 27 27 27 26 27 29 29 30 32 33 33
29 28 27 26 24 23 22 22 21 20 19 18 18 20 24 28 29 30 31 31 30 28 30 30 28 28 27 29 31 31 29 30 31 29 28 27 28 29 31 32 32 32 33 34
31 31 29 27 26 26 25 24 23 21 20 20 22 22 23 24 28 30 30 30 31 32 31 31 31 30 28 29 30 31 31 29 29 29 29 27 29 31 32 33 33 33 33 34
28 30 32 30 28 29 29 28 27 26 26 26 26 28 29 27 28 31 31 31 30 30 31 33 32 31 29 30 30 31 30 29 28 29 29 29 29 29 30 30 32 33 34 36
27 28 29 30 31 30 31 32 31 31 31 32 33 34 34 34 32 31 33 31 30 30 32 34 35 34 33 32 31 32 30 29 29 30 31 30 30 30 31 32 34 35 38 39
25 22 22 25 28 30 29 30 32 33 35 36 36 37 36 36 34 32 33 32 33 32 33 32 34 36 36 35 35 33 32 30 29 30 30 31 31 32 34 35 37 38 41 43
24 22 19 19 21 25 29 32 34 36 38 37 36 36 34 32 32 31 30 32 33 32 32 31 32 35 37 38 35 37 37 36 34 33 33 34 35 36 37 40 42 42 44 46
17 19 21 22 25 26 28 25 23 23 23 26 28 29 29 29 28 27 28 29 29 30 31 30 30 32 34 35 37 37 36 37 36 36 37 37 36 37 38 40 40 42 45 44
9 12 15 17 17 17 17 17 17 17 19 18 17 17 17 18 18 20 22 24 25 27 28 28 29 29 30 31 32 33 35 37 38 38 37 37 38 39 40 41 40 38 38 38
7 8 9 11 12 13 14 16 17 17 18 16 15 16 16 16 16 16 17 18 18 19 21 23 24 25 27 28 30 30 31 32 34 35 36 37 37 36 35 33 34 34 35 37
4 6 9 10 11 13 17 16 11 9 10 12 14 15 16 17 18 16 16 16 16 16 17 18 20 21 22 23 24 25 27 29 31 32 32 33 34 35 37 39 41 40 40 42
4 7 11 16 20 23 22 20 19 20 19 18 17 16 16 17 20 19 17 17 18 19 20 21 22 23 23 23 25 27 29 30 31 32 34 36 36 36 35 35 35 35 36 37
10 12 15 16 17 20 25 28 30 29 28 25 23 21 19 16 14 18 20 20 19 18 16 16 18 20 22 24 25 27 28 30 31 31 31 32 32 33 34 35 37 39 40 42
17 18 18 18 18 17 17 18 22 25 28 28 27 24 21 19 17 15 15 16 16 17 18 19 20 21 23 24 26 28 29 31 33 34 36 37 39 40 41 42 43 44 45 45
Wind_Direction
240 239 237 234 234 232 236 248 248 250 257 252 247 245 237 233 231 226 229 236 241 244 247 238 238 244 248 252 255 255 257 259 262 268 268 265 265 264 264 266 266 269 269 270
237 238 241 241 236 235 242 245 248 248 247 260 247 247 246 256 235 230 231 235 234 237 242 248 250 249 251 253 252 254 254 255 257 258 258 259 260 263 265 266 267 269 269 269
242 247 246 244 248 250 244 240 247 238 247 246 251 249 241 240 230 230 229 228 235 238 239 241 243 242 243 247 250 249 249 250 251 253 256 259 260 261 263 266 266 266 268 273
249 250 252 257 250 253 248 246 249 252 254 253 254 256 254 248 240 239 234 233 235 236 237 239 243 244 243 243 246 247 248 250 253 254 254 256 259 261 265 267 269 270 274 276
247 246 249 250 246 249 253 249 249 249 248 252 253 254 251 250 245 241 240 243 245 240 242 251 250 249 248 247 249 249 249 250 252 253 255 256 258 263 268 270 268 269 274 274
253 253 249 241 243 247 251 247 253 251 247 248 252 240 227 232 237 246 242 243 243 245 244 247 249 250 251 250 250 251 252 255 256 256 258 261 261 262 265 264 266 270 270 273
252 252 238 237 235 242 245 244 246 245 243 240 233 224 231 234 233 234 240 246 246 245 244 244 247 250 251 252 253 254 254 256 258 258 258 260 261 259 260 263 268 272 270 272
242 249 235 233 237 238 236 243 239 239 241 229 228 231 229 230 234 237 244 244 243 244 246 248 249 251 250 251 253 254 256 257 259 259 259 259 262 264 266 268 266 267 267 269
235 236 233 234 234 234 234 239 236 242 238 239 239 237 236 245 243 241 248 252 249 251 249 248 249 249 249 249 250 253 256 256 256 256 258 261 262 262 261 263 265 264 266 271
236 232 232 232 231 231 232 237 234 239 232 234 237 240 243 242 245 247 249 248 243 241 242 243 244 245 246 248 250 251 255 255 252 252 253 257 261 261 263 264 260 262 268 274
233 235 237 236 234 233 233 232 232 232 243 242 238 237 244 249 247 246 245 245 247 246 244 242 241 242 245 248 252 256 253 254 254 253 254 258 261 263 266 270 267 266 270 274
231 236 239 241 238 237 239 240 239 238 237 242 246 246 244 249 250 253 252 254 249 248 250 248 246 243 244 248 253 258 258 254 255 256 258 260 263 263 262 263 263 266 272 278
232 235 238 244 245 240 239 241 242 243 244 245 245 246 246 248 252 257 258 259 256 253 250 251 251 250 249 251 253 255 257 257 258 259 260 263 262 259 260 261 265 270 275 279
234 234 237 240 243 245 243 238 240 241 244 246 249 252 254 253 254 255 256 258 257 253 249 249 254 257 255 256 257 259 260 261 260 259 260 258 262 264 265 266 270 275 279 283
231 235 239 242 241 243 242 236 235 231 234 241 246 252 255 257 256 256 257 256 255 252 248 248 252 258 261 261 259 260 264 264 260 258 257 258 261 262 265 268 270 273 278 282
240 234 234 241 240 238 237 234 235 238 245 255 262 266 268 265 261 257 255 256 256 255 251 246 250 255 261 265 264 264 267 264 260 258 263 266 266 267 267 269 272 275 279 284
246 242 239 240 243 242 240 240 244 249 254 257 262 271 275 278 272 263 257 255 257 256 255 251 251 257 262 263 264 265 266 265 261 259 261 264 267 267 269 271 275 278 283 287
248 248 247 242 243 247 248 250 254 257 260 265 270 273 275 275 275 268 260 257 255 256 254 252 250 253 259 263 258 264 266 264 264 265 267 270 271 274 275 277 280 282 283 284
245 249 247 241 243 248 252 254 258 263 267 270 271 271 272 271 272 268 260 256 257 256 255 256 256 255 256 260 258 258 263 265 268 270 272 273 275 278 280 280 280 280 281 283
245 251 249 244 247 252 258 263 266 268 269 268 266 266 267 265 263 262 260 258 259 260 261 260 258 257 258 259 262 259 261 267 269 272 277 280 282 283 280 279 279 279 279 280
244 245 249 255 261 267 272 268 264 263 263 265 264 260 258 256 256 257 257 257 258 258 259 260 259 261 262 263 263 263 263 264 268 272 275 276 276 278 281 282 282 282 283 280
256 255 255 254 249 245 246 249 255 260 256 253 250 251 254 261 263 262 260 260 258 257 257 257 258 259 260 261 264 265 265 265 267 268 271 276 276 280 281 284 284 282 282 282
226 230 230 233 236 239 243 241 241 239 243 245 255 260 262 263 264 263 263 265 264 263 263 263 264 264 263 264 265 266 266 266 268 271 273 276 279 279 279 281 282 284 283 284
294 297 292 285 280 269 252 236 243 266 283 286 289 289 278 270 267 264 262 260 262 264 267 268 269 269 269 269 270 270 269 269 270 271 273 275 278 280 281 282 282 281 284 284
303 312 300 285 276 271 267 265 262 263 269 276 286 289 302 274 257 258 260 262 265 268 269 269 270 271 272 271 270 270 271 271 273 275 277 279 282 285 285 285 285 286 287 287
299 304 320 311 296 287 272 264 261 263 267 271 275 282 286 290 268 254 258 265 269 272 273 274 272 273 273 274 274 275 274 275 276 277 277 278 279 281 283 286 288 289 290 290
289 299 306 321 317 306 302 282 270 266 266 266 268 270 270 275 268 265 261 262 264 267 274 278 280 280 280 279 279 279 279 279 279 279 279 279 279 280 282 283 285 287 288 287